Track GONETS-M 9 now! 10-day predictions GONETS-M 9 is classified as:
1 40062U 14036B 25182.86144114 .00000029 00000-0 13976-3 0 9993 2 40062 82.5097 165.2639 0022301 196.2867 163.7499 12.42937088498930